This is the latest recevied weather packets stored in our database for station/object KC3SOZ. If no packets are shown the sender has not sent any weather packets the latest 1 day(s).
| Time | Temp. | Humidity | Pressure | Rain* | Wind** | Luminosity | Snow |
|---|---|---|---|---|---|---|---|
| 1778049672 | 20.56° C | 54% | 1008.9 hPa | 0 mm | - | 0 W/m² | - |
| 1778049371 | 20° C | 54% | 1009 hPa | 0 mm | - | 0 W/m² | - |
| 1778048766 | 20.56° C | 53% | 1008.9 hPa | 0 mm | - | 0 W/m² | - |
| 1778048463 | 20.56° C | 52% | 1008.9 hPa | 0 mm | - | 0 W/m² | - |
| 1778047555 | 20.56° C | 51% | 1009.2 hPa | 0 mm | - | 0 W/m² | - |
| 1778046949 | 20.56° C | 51% | 1009.4 hPa | 0 mm | - | 0 W/m² | - |
| 1778046645 | 20.56° C | 51% | 1009.4 hPa | 0 mm | - | 0 W/m² | - |
| 1778046342 | 20.56° C | 50% | 1009.6 hPa | 0 mm | - | 0 W/m² | - |
| 1778044830 | 21.11° C | 48% | 1009.6 hPa | 0 mm | - | 0 W/m² | - |
| 1778044223 | 21.11° C | 48% | 1009.7 hPa | 0 mm | - | 0 W/m² | - |
| 1778043619 | 21.11° C | 47% | 1009.6 hPa | 0 mm | - | 0 W/m² | - |
| 1778043315 | 21.11° C | 47% | 1009.7 hPa | 0 mm | - | 0 W/m² | - |
| 1778042710 | 21.11° C | 47% | 1009.7 hPa | 0 mm | - | 0 W/m² | - |
| 1778041501 | 21.67° C | 45% | 1009.5 hPa | 0 mm | - | 0 W/m² | - |
| 1778041198 | 21.11° C | 46% | 1009.6 hPa | 0 mm | - | 0 W/m² | - |
| 1778040896 | 21.67° C | 45% | 1009.6 hPa | 0 mm | - | 0 W/m² | - |
| 1778040593 | 21.11° C | 45% | 1009.8 hPa | 0 mm | - | 0 W/m² | - |
| 1778040291 | 21.11° C | 44% | 1009.6 hPa | 0 mm | - | 0 W/m² | - |
| 1778039986 | 21.67° C | 44% | 1009.6 hPa | 0 mm | - | 0 W/m² | - |
| 1778039380 | 21.67° C | 44% | 1009.8 hPa | 0 mm | - | 0 W/m² | - |
| 1778039078 | 21.67° C | 43% | 1009.7 hPa | 0 mm | - | 0 W/m² | - |
| 1778038774 | 21.67° C | 44% | 1009.7 hPa | 0 mm | - | 0 W/m² | - |
| 1778038472 | 21.67° C | 43% | 1009.5 hPa | 0 mm | - | 0 W/m² | - |
| 1778038168 | 21.67° C | 43% | 1009.7 hPa | 0 mm | - | 0 W/m² | - |
| 1778037866 | 21.67° C | 44% | 1009.7 hPa | 0 mm | - | 0 W/m² | - |
* Rain latest hour (hover to see other rain measurements)
** Current wind speed in m/s (hover to see current wind gust speed)